TimeCDT,TemperatureF,Dew PointF,Humidity,Sea Level PressureIn,VisibilityMPH,Wind Direction,Wind SpeedMPH,Gust SpeedMPH,PrecipitationIn,Events,Conditions,WindDirDegrees,DateUTC
12:15 AM,48.2,41.0,76,30.17,10.0,WNW,3.5,-,N/A,,Clear,290,2013-09-20 05:15:00
12:35 AM,47.7,40.6,77,30.17,10.0,Calm,Calm,-,N/A,,Clear,0,2013-09-20 05:35:00
12:55 AM,46.8,40.5,79,30.17,10.0,Calm,Calm,-,N/A,,Clear,0,2013-09-20 05:55:00
1:15 AM,45.5,39.9,81,30.18,10.0,West,3.5,-,N/A,,Clear,280,2013-09-20 06:15:00
1:35 AM,45.0,39.9,82,30.18,10.0,WNW,3.5,-,N/A,,Clear,290,2013-09-20 06:35:00
1:55 AM,45.5,40.1,81,30.18,10.0,West,3.5,-,N/A,,Clear,260,2013-09-20 06:55:00
2:15 AM,43.9,39.6,85,30.18,10.0,West,3.5,-,N/A,,Clear,270,2013-09-20 07:15:00
2:35 AM,42.4,38.8,87,30.17,10.0,WNW,3.5,-,N/A,,Clear,290,2013-09-20 07:35:00
2:55 AM,42.1,38.8,88,30.18,10.0,West,4.6,-,N/A,,Clear,270,2013-09-20 07:55:00
3:15 AM,43.2,39.4,86,30.17,10.0,West,4.6,-,N/A,,Clear,270,2013-09-20 08:15:00
3:35 AM,42.8,39.0,86,30.17,10.0,West,3.5,-,N/A,,Clear,270,2013-09-20 08:35:00
3:55 AM,41.0,37.9,89,30.17,10.0,WNW,3.5,-,N/A,,Clear,290,2013-09-20 08:55:00
4:15 AM,40.1,37.4,90,30.17,10.0,WNW,3.5,-,N/A,,Clear,300,2013-09-20 09:15:00
4:35 AM,40.1,37.6,91,30.16,10.0,WNW,4.6,-,N/A,,Clear,290,2013-09-20 09:35:00
4:55 AM,39.6,37.0,91,30.16,10.0,WNW,3.5,-,N/A,,Clear,300,2013-09-20 09:55:00
5:15 AM,39.2,36.5,90,30.16,10.0,West,3.5,-,N/A,,Clear,280,2013-09-20 10:15:00
5:35 AM,39.6,37.2,91,30.16,10.0,WNW,3.5,-,N/A,,Clear,300,2013-09-20 10:35:00
5:55 AM,39.2,36.7,91,30.15,10.0,WNW,3.5,-,N/A,,Clear,300,2013-09-20 10:55:00
6:15 AM,40.3,37.6,90,30.16,10.0,West,3.5,-,N/A,,Clear,280,2013-09-20 11:15:00
6:35 AM,40.3,37.4,89,30.16,10.0,Calm,Calm,-,N/A,,Clear,0,2013-09-20 11:35:00
6:55 AM,39.4,36.5,89,30.16,10.0,WNW,4.6,-,N/A,,Clear,300,2013-09-20 11:55:00
7:15 AM,39.2,36.5,90,30.17,10.0,WNW,3.5,-,N/A,,Clear,300,2013-09-20 12:15:00
7:35 AM,39.2,36.7,91,30.17,10.0,WNW,4.6,-,N/A,,Clear,290,2013-09-20 12:35:00
7:55 AM,40.1,37.4,90,30.17,10.0,WNW,5.8,-,N/A,,Clear,300,2013-09-20 12:55:00
8:15 AM,41.4,38.3,89,30.17,10.0,WNW,4.6,-,N/A,,Clear,290,2013-09-20 13:15:00
8:35 AM,43.3,39.9,88,30.17,10.0,West,4.6,-,N/A,,Clear,280,2013-09-20 13:35:00
8:55 AM,45.9,40.8,83,30.17,10.0,West,5.8,-,N/A,,Clear,280,2013-09-20 13:55:00
9:15 AM,48.0,41.7,79,30.17,7.0,West,6.9,-,0.01,,Clear,280,2013-09-20 14:15:00
9:35 AM,50.2,42.6,75,30.17,10.0,WNW,5.8,-,0.01,,Clear,290,2013-09-20 14:35:00
9:55 AM,52.9,43.5,71,30.17,10.0,West,6.9,-,0.01,,Clear,280,2013-09-20 14:55:00
10:15 AM,55.6,43.2,63,30.17,10.0,WNW,5.8,-,N/A,,Clear,300,2013-09-20 15:15:00
10:35 AM,58.6,42.8,56,30.17,10.0,NW,6.9,-,N/A,,Clear,320,2013-09-20 15:35:00
10:55 AM,59.9,42.3,52,30.17,10.0,WNW,8.1,-,N/A,,Clear,300,2013-09-20 15:55:00
11:15 AM,61.7,42.1,49,30.16,10.0,West,6.9,-,N/A,,Clear,260,2013-09-20 16:15:00
11:35 AM,62.8,41.4,45,30.16,10.0,NW,6.9,10.4,N/A,,Clear,310,2013-09-20 16:35:00
11:55 AM,64.4,42.1,44,30.15,10.0,WNW,5.8,-,N/A,,Clear,290,2013-09-20 16:55:00
12:15 PM,65.7,40.5,40,30.14,10.0,WNW,10.4,-,N/A,,Clear,290,2013-09-20 17:15:00
12:35 PM,66.9,40.1,37,30.13,10.0,West,5.8,-,N/A,,Clear,260,2013-09-20 17:35:00
12:55 PM,68.2,40.8,37,30.13,10.0,West,8.1,-,N/A,,Clear,260,2013-09-20 17:55:00
1:15 PM,68.5,39.4,34,30.11,10.0,NNW,5.8,-,N/A,,Clear,330,2013-09-20 18:15:00
1:35 PM,69.6,39.2,33,30.10,10.0,NNW,6.9,-,N/A,,Clear,340,2013-09-20 18:35:00
1:55 PM,70.7,40.1,33,30.10,10.0,NNW,11.5,17.3,N/A,,Clear,340,2013-09-20 18:55:00
2:15 PM,72.1,40.8,32,30.08,10.0,NW,8.1,-,N/A,,Clear,320,2013-09-20 19:15:00
2:35 PM,72.0,38.7,30,30.08,10.0,NW,11.5,-,N/A,,Clear,320,2013-09-20 19:35:00
2:55 PM,72.3,39.4,30,30.07,10.0,WNW,9.2,-,N/A,,Clear,290,2013-09-20 19:55:00
3:15 PM,72.9,39.2,30,30.07,10.0,West,8.1,17.3,N/A,,Clear,280,2013-09-20 20:15:00
3:35 PM,73.4,39.7,30,30.07,10.0,West,5.8,18.4,N/A,,Scattered Clouds,280,2013-09-20 20:35:00
3:55 PM,73.4,39.2,29,30.05,10.0,NW,11.5,16.1,N/A,,Clear,320,2013-09-20 20:55:00
4:15 PM,73.9,38.1,27,30.05,10.0,NW,8.1,-,N/A,,Scattered Clouds,310,2013-09-20 21:15:00
4:35 PM,74.7,39.4,28,30.05,10.0,WNW,6.9,16.1,N/A,,Scattered Clouds,300,2013-09-20 21:35:00
4:55 PM,74.1,37.6,27,30.04,10.0,West,5.8,-,N/A,,Clear,280,2013-09-20 21:55:00
5:15 PM,74.1,38.5,28,30.03,10.0,WNW,6.9,-,N/A,,Clear,290,2013-09-20 22:15:00
5:35 PM,74.3,38.1,27,30.03,10.0,West,12.7,18.4,N/A,,Clear,280,2013-09-20 22:35:00
5:55 PM,73.6,37.9,27,30.03,10.0,WNW,8.1,-,N/A,,Clear,290,2013-09-20 22:55:00
6:15 PM,73.4,38.7,28,30.03,10.0,WNW,5.8,-,N/A,,Clear,300,2013-09-20 23:15:00
6:35 PM,72.9,39.2,30,30.02,10.0,Calm,Calm,-,N/A,,Clear,0,2013-09-20 23:35:00
6:55 PM,71.6,40.5,32,30.02,10.0,NNW,3.5,-,N/A,,Clear,340,2013-09-20 23:55:00
7:15 PM,70.5,40.1,33,30.02,10.0,Calm,Calm,-,N/A,,Clear,0,2013-09-21 00:15:00
7:35 PM,67.8,42.8,40,30.02,10.0,NE,3.5,-,N/A,,Clear,50,2013-09-21 00:35:00
7:55 PM,64.8,44.4,48,30.02,10.0,Calm,Calm,-,N/A,,Clear,0,2013-09-21 00:55:00
8:15 PM,62.4,44.4,52,30.02,10.0,SE,3.5,-,N/A,,Clear,130,2013-09-21 01:15:00
8:35 PM,61.2,43.9,53,30.02,10.0,SE,3.5,-,N/A,,Clear,130,2013-09-21 01:35:00
8:55 PM,60.3,43.3,54,30.02,10.0,SE,3.5,-,N/A,,Clear,140,2013-09-21 01:55:00
9:15 PM,57.9,43.5,59,30.03,10.0,Calm,Calm,-,N/A,,Clear,0,2013-09-21 02:15:00
9:35 PM,58.5,43.3,57,30.02,10.0,SSE,4.6,-,N/A,,Clear,150,2013-09-21 02:35:00
9:55 PM,55.4,43.7,65,30.03,10.0,SSE,6.9,-,N/A,,Clear,150,2013-09-21 02:55:00
10:15 PM,55.2,43.7,65,30.03,10.0,SE,4.6,-,N/A,,Clear,140,2013-09-21 03:15:00
10:35 PM,53.8,43.9,69,30.03,10.0,SE,5.8,-,N/A,,Clear,130,2013-09-21 03:35:00
10:55 PM,53.4,43.3,69,30.03,10.0,Calm,Calm,-,N/A,,Clear,0,2013-09-21 03:55:00
11:15 PM,52.9,43.2,70,30.03,10.0,Calm,Calm,-,N/A,,Clear,0,2013-09-21 04:15:00
11:35 PM,51.4,43.2,73,30.03,10.0,Calm,Calm,-,N/A,,Clear,0,2013-09-21 04:35:00
11:55 PM,50.4,43.0,76,30.03,10.0,Calm,Calm,-,N/A,,Clear,0,2013-09-21 04:55:00